• In Deutschland
  • Länderverzeichnis
  • Für 7 Tage
  • Wassertemperatur
  • Satellitenkarten
  • Wetterkarte
  • Widgets
  • user-avatar
    Anmelden

    Stündliche Wetter Waren

    Heute, 16 Juli, Montag

    Zeit Temperatur Niederschläge Wind Luftdruck Luftfeuchtigkeit
    00:00 +16°C° 0 mm 1 m/S 756 mmHg 91%
    01:00 +15°C° 0 mm 1 m/S 756 mmHg 91%
    02:00 +15°C° 0 mm 1 m/S 756 mmHg 92%
    03:00 +15°C° 0 mm 1 m/S 756 mmHg 92%
    04:00 +15°C° 0 mm 1 m/S 756 mmHg 92%
    05:00 +16°C° 0 mm 1 m/S 756 mmHg 87%
    06:00 +19°C° 0 mm 1 m/S 756 mmHg 82%
    07:00 +21°C° 0 mm 1 m/S 755 mmHg 75%
    08:00 +22°C° 0 mm 1 m/S 755 mmHg 68%
    09:00 +24°C° 0 mm 2 m/S 755 mmHg 62%
    10:00 +25°C° 0 mm 2 m/S 755 mmHg 56%
    11:00 +26°C° 0 mm 2 m/S 755 mmHg 53%
    12:00 +27°C° 0 mm 2 m/S 755 mmHg 50%
    13:00 +27°C° 0 mm 2 m/S 754 mmHg 49%
    14:00 +27°C° 0 mm 2 m/S 754 mmHg 50%
    15:00 +27°C° 0 mm 3 m/S 754 mmHg 50%
    16:00 +28°C° 0 mm 3 m/S 754 mmHg 50%
    17:00 +27°C° 0 mm 3 m/S 753 mmHg 56%
    18:00 +26°C° 0 mm 2 m/S 753 mmHg 63%
    19:00 +25°C° 0 mm 2 m/S 753 mmHg 69%
    20:00 +23°C° 0 mm 2 m/S 753 mmHg 74%
    21:00 +20°C° 0 mm 2 m/S 753 mmHg 79%
    22:00 +19°C° 0 mm 1 m/S 753 mmHg 84%
    23:00 +19°C° 0 mm 1 m/S 754 mmHg 85%

    Morgen, 17 Juli, Dienstag

    Zeit Temperatur Niederschläge Wind Luftdruck Luftfeuchtigkeit
    00:00 +18°C° 0 mm 1 m/S 754 mmHg 85%
    01:00 +18°C° 0 mm 1 m/S 754 mmHg 85%
    02:00 +18°C° 0 mm 1 m/S 754 mmHg 85%
    03:00 +18°C° 0 mm 1 m/S 753 mmHg 85%
    04:00 +18°C° 0 mm 1 m/S 753 mmHg 85%
    05:00 +19°C° 0 mm 1 m/S 753 mmHg 82%
    06:00 +19°C° 0 mm 2 m/S 753 mmHg 78%
    07:00 +20°C° 0 mm 2 m/S 753 mmHg 75%
    08:00 +23°C° 0 mm 2 m/S 753 mmHg 68%
    09:00 +25°C° 0 mm 2 m/S 753 mmHg 61%
    10:00 +26°C° 0 mm 2 m/S 754 mmHg 55%
    11:00 +27°C° 0 mm 3 m/S 753 mmHg 53%
    12:00 +27°C° 0 mm 3 m/S 753 mmHg 51%
    13:00 +28°C° 0 mm 3 m/S 753 mmHg 49%
    14:00 +28°C° 0 mm 4 m/S 753 mmHg 50%
    15:00 +28°C° 0 mm 4 m/S 753 mmHg 51%
    16:00 +28°C° 0 mm 4 m/S 753 mmHg 52%
    17:00 +26°C° 0 mm 4 m/S 753 mmHg 57%
    18:00 +25°C° 0 mm 3 m/S 753 mmHg 63%
    19:00 +24°C° 0 mm 3 m/S 753 mmHg 69%
    20:00 +23°C° 0 mm 2 m/S 753 mmHg 73%
    21:00 +20°C° 0 mm 2 m/S 753 mmHg 77%
    22:00 +19°C° 0 mm 2 m/S 753 mmHg 81%
    23:00 +19°C° 0 mm 2 m/S 753 mmHg 82%

    übermorgen, 18 Juli, Mittwoch

    Zeit Temperatur Niederschläge Wind Luftdruck Luftfeuchtigkeit
    00:00 +18°C° 0 mm 2 m/S 754 mmHg 83%
    01:00 +18°C° 0 mm 2 m/S 754 mmHg 83%
    02:00 +18°C° 0 mm 2 m/S 754 mmHg 84%
    03:00 +18°C° 0 mm 2 m/S 754 mmHg 85%
    04:00 +17°C° 0 mm 3 m/S 754 mmHg 86%
    05:00 +18°C° 0 mm 3 m/S 754 mmHg 83%
    06:00 +20°C° 0 mm 3 m/S 754 mmHg 80%
    07:00 +21°C° 0 mm 3 m/S 754 mmHg 77%
    08:00 +22°C° 0,1 mm 4 m/S 755 mmHg 73%
    09:00 +23°C° 0,1 mm 4 m/S 755 mmHg 69%
    10:00 +25°C° 0,1 mm 5 m/S 755 mmHg 64%
    11:00 +26°C° 0,1 mm 5 m/S 755 mmHg 61%
    12:00 +27°C° 0,1 mm 5 m/S 755 mmHg 58%
    13:00 +27°C° 0,1 mm 5 m/S 755 mmHg 55%
    14:00 +27°C° 0 mm 5 m/S 755 mmHg 55%
    15:00 +27°C° 0 mm 5 m/S 755 mmHg 54%
    16:00 +27°C° 0 mm 5 m/S 755 mmHg 54%
    17:00 +26°C° 0 mm 4 m/S 755 mmHg 58%
    18:00 +25°C° 0 mm 4 m/S 755 mmHg 62%
    19:00 +22°C° 0 mm 3 m/S 755 mmHg 66%
    20:00 +21°C° 0 mm 3 m/S 755 mmHg 70%
    21:00 +19°C° 0 mm 3 m/S 756 mmHg 75%
    22:00 +18°C° 0 mm 3 m/S 756 mmHg 79%
    23:00 +17°C° 0 mm 3 m/S 756 mmHg 80%

    19 Juli, Donnerstag

    Zeit Temperatur Niederschläge Wind Luftdruck Luftfeuchtigkeit
    00:00 +17°C° 0 mm 3 m/S 756 mmHg 80%
    01:00 +17°C° 0 mm 3 m/S 756 mmHg 81%
    02:00 +16°C° 0 mm 3 m/S 756 mmHg 84%
    03:00 +16°C° 0 mm 3 m/S 756 mmHg 87%
    04:00 +16°C° 0 mm 3 m/S 756 mmHg 90%
    05:00 +17°C° 0 mm 3 m/S 757 mmHg 85%
    06:00 +18°C° 0 mm 4 m/S 757 mmHg 81%
    07:00 +19°C° 0 mm 4 m/S 757 mmHg 77%
    08:00 +20°C° 0 mm 4 m/S 757 mmHg 70%
    09:00 +21°C° 0 mm 4 m/S 757 mmHg 64%
    10:00 +23°C° 0 mm 5 m/S 757 mmHg 57%
    11:00 +23°C° 0 mm 5 m/S 757 mmHg 54%
    12:00 +25°C° 0 mm 5 m/S 757 mmHg 51%
    13:00 +26°C° 0 mm 5 m/S 757 mmHg 48%
    14:00 +25°C° 0 mm 5 m/S 757 mmHg 48%
    15:00 +25°C° 0 mm 4 m/S 757 mmHg 49%
    16:00 +25°C° 0 mm 4 m/S 756 mmHg 49%
    17:00 +23°C° 0 mm 4 m/S 756 mmHg 53%
    18:00 +22°C° 0 mm 3 m/S 756 mmHg 58%
    19:00 +23°C° 0 mm 2 m/S 756 mmHg 63%
    20:00 +20°C° 0 mm 2 m/S 756 mmHg 66%
    21:00 +18°C° 0 mm 2 m/S 757 mmHg 70%
    22:00 +16°C° 0 mm 1 m/S 757 mmHg 74%
    23:00 +16°C° 0 mm 1 m/S 757 mmHg 75%

    20 Juli, Freitag

    Zeit Temperatur Niederschläge Wind Luftdruck Luftfeuchtigkeit
    00:00 +16°C° 0 mm 1 m/S 757 mmHg 76%
    01:00 +15°C° 0 mm 1 m/S 757 mmHg 77%
    02:00 +15°C° 0 mm 2 m/S 756 mmHg 80%
    03:00 +14°C° 0 mm 2 m/S 756 mmHg 82%
    04:00 +14°C° 0 mm 2 m/S 756 mmHg 84%
    05:00 +16°C° 0 mm 2 m/S 756 mmHg 80%
    06:00 +17°C° 0 mm 2 m/S 756 mmHg 76%
    07:00 +18°C° 0 mm 2 m/S 756 mmHg 72%
    08:00 +20°C° 0 mm 2 m/S 756 mmHg 66%
    09:00 +21°C° 0 mm 2 m/S 756 mmHg 60%
    10:00 +24°C° 0 mm 3 m/S 756 mmHg 54%
    11:00 +25°C° 0 mm 3 m/S 756 mmHg 51%
    12:00 +25°C° 0 mm 3 m/S 756 mmHg 48%
    13:00 +26°C° 0 mm 3 m/S 755 mmHg 45%
    14:00 +26°C° 0 mm 3 m/S 755 mmHg 45%
    15:00 +26°C° 0 mm 3 m/S 755 mmHg 46%
    16:00 +25°C° 0 mm 3 m/S 755 mmHg 46%
    17:00 +24°C° 0 mm 3 m/S 755 mmHg 51%
    18:00 +22°C° 0 mm 3 m/S 754 mmHg 56%
    19:00 +21°C° 0 mm 2 m/S 754 mmHg 61%
    20:00 +19°C° 0 mm 2 m/S 754 mmHg 64%
    21:00 +18°C° 0 mm 1 m/S 754 mmHg 67%
    22:00 +16°C° 0 mm 1 m/S 754 mmHg 70%
    23:00 +15°C° 0 mm 1 m/S 754 mmHg 70%

    21 Juli, Samstag

    Zeit Temperatur Niederschläge Wind Luftdruck Luftfeuchtigkeit
    00:00 +15°C° 0 mm 1 m/S 754 mmHg 71%
    01:00 +15°C° 0 mm 1 m/S 754 mmHg 71%
    02:00 +14°C° 0 mm 1 m/S 754 mmHg 72%
    03:00 +14°C° 0 mm 1 m/S 754 mmHg 72%
    04:00 +14°C° 0 mm 1 m/S 753 mmHg 73%
    05:00 +16°C° 0 mm 1 m/S 753 mmHg 69%
    06:00 +18°C° 0 mm 1 m/S 753 mmHg 66%
    07:00 +20°C° 0 mm 1 m/S 753 mmHg 63%
    08:00 +21°C° 0 mm 1 m/S 753 mmHg 60%
    09:00 +22°C° 0 mm 1 m/S 753 mmHg 57%
    10:00 +23°C° 0 mm 1 m/S 753 mmHg 55%
    11:00 +24°C° 0 mm 1 m/S 753 mmHg 54%
    12:00 +24°C° 0 mm 1 m/S 753 mmHg 54%
    13:00 +24°C° 0 mm 2 m/S 753 mmHg 53%
    14:00 +24°C° 0 mm 1 m/S 752 mmHg 54%
    15:00 +24°C° 0 mm 1 m/S 752 mmHg 54%
    16:00 +24°C° 0 mm 1 m/S 752 mmHg 54%
    17:00 +23°C° 0,2 mm 2 m/S 752 mmHg 61%
    18:00 +21°C° 0,2 mm 2 m/S 752 mmHg 68%
    19:00 +20°C° 0,2 mm 2 m/S 752 mmHg 75%
    20:00 +19°C° 0,3 mm 2 m/S 752 mmHg 80%
    21:00 +18°C° 0,3 mm 2 m/S 752 mmHg 85%
    22:00 +17°C° 0,3 mm 2 m/S 752 mmHg 90%
    23:00 +16°C° 0,2 mm 2 m/S 752 mmHg 91%
    Mehr zeigen